Salisbury, MD

10:39 AM EST on December 07, 2016 (GMT -0500)
Salisbury-Ocean City Wicomico Regional

Weather History for KSBY - October, 2012

Change the Weather History Date:

Monday, October 1, 2012

  Actual Average Record
Temperature  
Mean Temperature 62 °F 62 °F  
Max Temperature 73 °F 73 °F 90 °F (1986)
Min Temperature 50 °F 52 °F 34 °F (2005)
Degree Days  
Heating Degree Days 3 4  
Month to date heating degree days 3 4  
Since 1 July heating degree days 22 52  
Cooling Degree Days 0 2  
Month to date cooling degree days 0 2  
Year to date cooling degree days 1662 1127  
Growing Degree Days 11 (Base 50)    
Moisture  
Dew Point 53 °F    
Average Humidity 67    
Maximum Humidity 89    
Minimum Humidity 44    
Precipitation  
Precipitation T in 0.12 in 3.70 in (1915)
Month to date precipitation T 0.12  
Year to date precipitation 30.30 35.17  
Snow  
Snow 0.00 in 0.00 in 0.00 in (2002)
Month to date snowfall 0.0 0.0  
Since 1 July snowfall 0.0 0.0  
Snow Depth 0.00 in    
Sea Level Pressure  
Sea Level Pressure 29.95 in    
Wind  
Wind Speed 1 mph (ESE)    
Max Wind Speed 6 mph    
Max Gust Speed 29 mph    
Visibility 10 miles    
Events      
T = Trace of Precipitation, MM = Missing Value Source: NWS Daily Summary

Daily Weather History Graph

Daily Weather History Graph

Search for Another Location

Airport or City:

Trip Planner

Search our weather history database for the weather conditions in past years. The results will help you decide how hot, cold, wet, or windy it might be!

Date:

Astronomy

Oct. 01, 2012 Rise Set
Actual Time 6:58 AM EDT 6:44 PM EDT
Civil Twilight 6:31 AM EDT 7:10 PM EDT
Nautical Twilight 6:01 AM EDT 7:41 PM EDT
Astronomical Twilight 5:30 AM EDT 8:11 PM EDT
Moon 7:22 PM EDT (10/1) 8:23 AM EDT (10/1)
Length of Visible Light 12h 38m
Length of Day
11h 45m
Full, 98% of the Moon is Illuminated
Oct 1
Full
Oct 8
Last Quarter
Oct 15
New
Oct 21
First Quarter
Oct 29
Full

Hourly Weather History & Observations

Time (EDT) Temp. Dew Point Humidity Pressure Visibility Wind Dir Wind Speed Gust Speed Precip Events Conditions
12:54 AM 57.0 °F 50.0 °F 77% 29.91 in 10.0 mi North 3.5 mph - N/A   Scattered Clouds
1:54 AM 55.0 °F 50.0 °F 83% 29.91 in 10.0 mi Calm Calm - N/A   Clear
2:54 AM 53.1 °F 48.9 °F 86% 29.89 in 10.0 mi Calm Calm - N/A   Scattered Clouds
3:54 AM 52.0 °F 48.9 °F 89% 29.90 in 10.0 mi Calm Calm - N/A   Clear
4:54 AM 50.0 °F 46.9 °F 89% 29.91 in 10.0 mi Calm Calm - N/A   Clear
5:54 AM 51.1 °F 46.9 °F 86% 29.92 in 10.0 mi Calm Calm - N/A   Clear
6:54 AM 52.0 °F 48.0 °F 86% 29.93 in 9.0 mi Calm Calm - N/A   Clear
7:54 AM 55.9 °F 51.1 °F 84% 29.95 in 10.0 mi Calm Calm - N/A   Clear
8:54 AM 60.1 °F 54.0 °F 80% 29.96 in 9.0 mi Calm Calm - N/A   Clear
9:54 AM 64.0 °F 52.0 °F 65% 29.98 in 10.0 mi Calm Calm - N/A   Clear
10:54 AM 68.0 °F 51.1 °F 55% 29.99 in 10.0 mi Calm Calm - N/A   Clear
11:54 AM 70.0 °F 48.0 °F 46% 29.98 in 10.0 mi Calm Calm - N/A   Clear
12:54 PM 72.0 °F 48.0 °F 43% 29.97 in 10.0 mi Calm Calm - N/A   Clear
1:54 PM 72.0 °F 50.0 °F 46% 29.96 in 10.0 mi SSE 4.6 mph - N/A   Clear
2:54 PM 72.0 °F 51.1 °F 48% 29.94 in 10.0 mi Calm Calm - N/A   Mostly Cloudy
3:54 PM 71.1 °F 54.0 °F 55% 29.95 in 10.0 mi SSE 4.6 mph - N/A   Overcast
4:54 PM 70.0 °F 55.9 °F 61% 29.95 in 10.0 mi SSE 3.5 mph - N/A   Overcast
5:54 PM 68.0 °F 57.9 °F 70% 29.96 in 10.0 mi SSE 4.6 mph - N/A   Overcast
6:54 PM 66.9 °F 57.9 °F 73% 29.97 in 10.0 mi Calm Calm - N/A   Mostly Cloudy
7:54 PM 66.0 °F 59.0 °F 78% 29.97 in 10.0 mi Calm Calm - N/A   Overcast
8:54 PM 64.9 °F 59.0 °F 81% 29.97 in 10.0 mi ENE 3.5 mph - 0.00 in   Mostly Cloudy
9:54 PM 64.9 °F 59.0 °F 81% 29.98 in 10.0 mi Calm Calm - N/A   Mostly Cloudy
10:54 PM 64.9 °F 59.0 °F 81% 29.96 in 10.0 mi East 3.5 mph - N/A   Overcast
11:12 PM 64.4 °F 60.8 °F 88% 29.96 in 10.0 mi East 3.5 mph - N/A   Overcast
11:54 PM 66.0 °F 60.1 °F 81% 29.97 in 10.0 mi Calm Calm - N/A   Overcast